Date String (YYYY-MM-DD hh:mm:ss) UTC,Instrument flags,Ambient pressure (hPa),Sample flow (lpm),Bypass flow (lpm),Sample temperature (°C),Ambient temperature (°C),ASC tube jacket temperature (°C),LED temperature (°C),Box temperature (°C),Sample RH (%),Span deviation,Mass concentration (μg/m³),Mass concentration (μg/m³),Mass concentration (μg/m³)
DateTimeUTC,F1_M11,P_M11,Q1_M11,Q2_M11,T1_M11,T2_M11,T3_M11,T4_M11,T5_M11,U1_M11,ZSPAN_M11,X0_M11,X2_M11,X1_M11
2022-10-22 22:00:00,,0808.9,4.99,0.00,29.5,27.1,00.0,38.3,31.3,08.0,0000.0,0010.36,0003.20,0002.23
2022-10-22 22:01:00,,0809.0,4.99,0.00,29.5,27.4,00.0,38.3,31.4,08.0,0000.0,0009.75,0003.20,0002.23
2022-10-22 22:02:00,,0808.9,5.01,0.00,29.5,27.7,00.0,38.3,31.4,07.9,0000.0,0009.41,0003.19,0002.25
2022-10-22 22:03:00,,0808.9,5.00,0.00,29.5,27.9,00.0,38.3,31.5,07.8,0000.0,0009.79,0003.20,0002.26
2022-10-22 22:04:00,,0808.9,5.00,0.00,29.6,28.1,00.0,38.3,31.5,07.9,0000.0,0009.70,0003.17,0002.26
2022-10-22 22:05:00,,0808.9,5.01,0.00,29.6,28.3,00.0,38.3,31.6,07.6,0000.0,0010.37,0003.16,0002.26
2022-10-22 22:06:00,,0808.9,4.98,0.00,29.6,28.4,00.0,38.3,31.6,07.7,0000.0,0009.95,0003.16,0002.27
2022-10-22 22:07:00,,0808.9,5.01,0.00,29.6,28.5,00.0,38.4,31.6,07.8,0000.0,0009.61,0003.15,0002.27
2022-10-22 22:08:00,,0808.9,4.99,0.00,29.7,28.6,00.0,38.4,31.7,07.7,0000.0,0008.73,0003.15,0002.27
2022-10-22 22:09:00,,0808.9,5.02,0.00,29.7,28.7,00.0,38.4,31.7,07.7,0000.0,0009.14,0003.13,0002.27
2022-10-22 22:10:00,,0808.9,4.99,0.00,29.8,28.8,00.0,38.4,31.8,07.8,0000.0,0009.71,0003.08,0002.26
2022-10-22 22:11:00,,0808.9,5.00,0.00,29.8,28.2,00.0,38.4,31.7,07.7,0000.0,0010.00,0003.09,0002.24
2022-10-22 22:12:00,,0808.7,5.00,0.00,29.8,27.0,00.0,38.4,31.6,07.7,0000.0,0011.49,0003.13,0002.22
2022-10-22 22:13:00,,0808.7,5.01,0.00,29.7,26.8,00.0,38.4,31.6,07.8,0000.0,0012.32,0003.13,0002.21
2022-10-22 22:14:00,,0808.7,4.98,0.00,29.7,27.0,00.0,38.4,31.5,08.0,0000.0,0011.36,0003.10,0002.21
2022-10-22 22:15:00,,0808.7,5.01,0.00,29.7,27.3,00.0,38.4,31.5,07.9,0000.0,0011.50,0003.12,0002.21
2022-10-22 22:16:00,,0808.7,4.99,0.00,29.6,27.6,00.0,38.4,31.5,07.9,0000.0,0011.18,0003.15,0002.22
2022-10-22 22:17:00,,0808.7,5.00,0.00,29.7,27.8,00.0,38.4,31.6,07.8,0000.0,0011.24,0003.15,0002.22
2022-10-22 22:18:00,,0808.7,5.00,0.00,29.7,28.0,00.0,38.4,31.6,07.8,0000.0,0011.59,0003.18,0002.22
2022-10-22 22:19:00,,0808.7,5.01,0.00,29.7,28.3,00.0,38.4,31.7,07.6,0000.0,0011.58,0003.16,0002.21
2022-10-22 22:20:00,,0808.7,4.99,0.00,29.7,28.4,00.0,38.4,31.7,07.7,0000.0,0011.33,0003.14,0002.20
2022-10-22 22:21:00,,0808.7,5.01,0.00,29.7,28.6,00.0,38.4,31.7,07.8,0000.0,0010.79,0003.12,0002.20
2022-10-22 22:22:00,,0808.7,4.98,0.00,29.8,28.7,00.0,38.5,31.8,07.8,0000.0,0011.04,0003.18,0002.21
2022-10-22 22:23:00,,0808.7,5.01,0.00,29.8,28.4,00.0,38.5,31.8,07.7,0000.0,0010.18,0003.16,0002.21
2022-10-22 22:24:00,,0808.7,4.99,0.00,29.8,27.2,00.0,38.5,31.6,07.7,0000.0,0009.11,0003.16,0002.22
2022-10-22 22:25:00,,0808.7,5.02,0.00,29.8,26.7,00.0,38.4,31.6,07.6,0000.0,0009.66,0003.17,0002.23
2022-10-22 22:26:00,,0808.7,4.98,0.00,29.7,26.8,00.0,38.4,31.4,07.7,0000.0,0009.79,0003.18,0002.23
2022-10-22 22:27:00,,0808.7,5.01,0.00,29.7,27.1,00.0,38.4,31.4,07.8,0000.0,0010.39,0003.19,0002.22
2022-10-22 22:28:00,,0808.7,4.99,0.00,29.7,27.5,00.0,38.4,31.5,07.9,0000.0,0010.06,0003.19,0002.23
2022-10-22 22:29:00,,0808.7,5.00,0.00,29.7,27.8,00.0,38.4,31.5,07.9,0000.0,0009.62,0003.18,0002.25
2022-10-22 22:30:00,,0808.7,5.00,0.00,29.7,28.0,00.0,38.4,31.6,07.8,0000.0,0009.52,0003.18,0002.26
2022-10-22 22:31:00,,0808.7,5.01,0.00,29.7,28.2,00.0,38.4,31.6,07.9,0000.0,0010.43,0003.20,0002.27
2022-10-22 22:32:00,,0808.7,5.00,0.00,29.7,28.4,00.0,38.4,31.7,07.9,0000.0,0010.88,0003.22,0002.28
2022-10-22 22:33:00,,0808.7,5.00,0.00,29.7,28.5,00.0,38.5,31.7,07.8,0000.0,0010.97,0003.13,0002.29
2022-10-22 22:34:00,,0808.7,5.01,0.00,29.8,28.6,00.0,38.5,31.8,07.8,0000.0,0011.22,0003.16,0002.31
2022-10-22 22:35:00,,0808.8,4.99,0.00,29.8,28.8,00.0,38.5,31.8,07.9,0000.0,0011.68,0003.18,0002.33
2022-10-22 22:36:00,,0808.7,5.00,0.00,29.8,28.3,00.0,38.5,31.8,07.7,0000.0,0011.31,0003.19,0002.33
2022-10-22 22:37:00,,0808.7,5.01,0.00,29.8,26.8,00.0,38.5,31.6,07.8,0000.0,0012.37,0003.18,0002.33
2022-10-22 22:38:00,,0808.7,4.99,0.00,29.7,26.1,00.0,38.4,31.4,07.8,0000.0,0011.96,0003.19,0002.35
2022-10-22 22:39:00,,0808.6,5.02,0.00,29.7,26.2,00.0,38.4,31.4,07.8,0000.0,0011.57,0003.21,0002.35
2022-10-22 22:40:00,,0808.6,4.98,0.00,29.6,26.5,00.0,38.4,31.3,07.8,0000.0,0011.98,0003.20,0002.34
2022-10-22 22:41:00,,0808.6,5.02,0.00,29.5,26.9,00.0,38.3,31.3,07.9,0000.0,0012.10,0003.19,0002.34
2022-10-22 22:42:00,,0808.7,4.99,0.00,29.5,27.2,00.0,38.3,31.4,08.0,0000.0,0011.62,0003.21,0002.34
2022-10-22 22:43:00,,0808.6,5.00,0.00,29.5,27.6,00.0,38.3,31.4,07.9,0000.0,0010.57,0003.21,0002.34
2022-10-22 22:44:00,,0808.6,5.00,0.00,29.6,27.8,00.0,38.3,31.5,07.9,0000.0,0010.17,0003.20,0002.33
2022-10-22 22:45:00,,0808.6,5.00,0.00,29.6,28.0,00.0,38.3,31.5,07.9,0000.0,0010.36,0003.19,0002.32
2022-10-22 22:46:00,,0808.6,5.00,0.00,29.6,28.2,00.0,38.4,31.6,07.9,0000.0,0009.78,0003.15,0002.30
2022-10-22 22:47:00,,0808.6,4.99,0.00,29.6,28.4,00.0,38.4,31.6,07.9,0000.0,0009.99,0003.18,0002.31
2022-10-22 22:48:00,,0808.6,5.01,0.00,29.7,28.5,00.0,38.4,31.7,07.9,0000.0,0008.73,0003.20,0002.32
2022-10-22 22:49:00,,0808.6,5.00,0.00,29.7,28.6,00.0,38.4,31.7,07.8,0000.0,0008.97,0003.21,0002.33
2022-10-22 22:50:00,,0808.6,5.00,0.00,29.7,28.7,00.0,38.4,31.8,07.8,0000.0,0009.44,0003.23,0002.34
2022-10-22 22:51:00,,0808.7,5.01,0.00,29.8,28.8,00.0,38.5,31.7,07.9,0000.0,0009.01,0003.26,0002.35
2022-10-22 22:52:00,,0808.6,4.98,0.00,29.8,28.8,00.0,38.5,31.8,07.8,0000.0,0009.18,0003.29,0002.35
2022-10-22 22:53:00,,0808.6,5.00,0.00,29.8,28.4,00.0,38.5,31.8,07.8,0000.0,0009.31,0003.31,0002.37
2022-10-22 22:54:00,,0808.7,5.02,0.00,29.8,27.1,00.0,38.5,31.6,08.0,0000.0,0009.40,0003.30,0002.37
2022-10-22 22:55:00,,0808.6,4.98,0.00,29.8,26.7,00.0,38.4,31.6,07.9,0000.0,0009.30,0003.29,0002.38
2022-10-22 22:56:00,,0808.6,5.01,0.00,29.7,26.9,00.0,38.4,31.5,07.8,0000.0,0008.64,0003.30,0002.41
2022-10-22 22:57:00,,0808.6,5.01,0.00,29.7,27.2,00.0,38.4,31.5,07.8,0000.0,0009.26,0003.33,0002.42
2022-10-22 22:58:00,,0808.6,5.00,0.00,29.7,27.5,00.0,38.4,31.5,07.6,0000.0,0009.05,0003.32,0002.43
2022-10-22 22:59:00,,0808.6,5.00,0.00,29.7,27.8,00.0,38.4,31.6,07.7,0000.0,0009.06,0003.32,0002.42
